"TOA5","MOW","CPU:UNC_MeetingWaters","DataHourly"
"TIMESTAMP","SondeTempC","SpCond","DOSat","DOmg","pH","Turb","BattVolt_Min"
"TS","","","","","","",""
"","Smp","Smp","Smp","Smp","Smp","Smp","Min"
"2005-05-01 00:00:00",16.2999992371,0.00200000009499,-1.20000004768,-0.109999999404,7.15000009537,7.69999980927,12.7299995422
"2005-05-01 01:00:00",16.2800006866,0.00200000009499,-1.10000002384,-0.109999999404,7.15999984741,6.90000009537,12.720000267
"2005-05-01 02:00:00",16.2299995422,0.00200000009499,-1.10000002384,-0.109999999404,7.17000007629,7.30000019073,12.7100000381
"2005-05-01 03:00:00",16.2900009155,0.00200000009499,-1.39999997616,-0.140000000596,7.92999982834,13.5,12.7100000381
"2005-05-01 04:00:00",16.9300003052,0.197999998927,-1.29999995232,-0.119999997318,7.73999977112,298.299987793,12.7100000381
"2005-05-01 05:00:00",16.8700008392,0.104000002146,-1.20000004768,-0.119999997318,7.73999977112,1352.0,12.6999998093
"2005-05-01 06:00:00",16.5499992371,0.082000002265,-1.20000004768,-0.109999999404,7.63000011444,1351.0,12.6899995804
"2005-05-01 07:00:00",16.1000003815,0.0769999995828,-1.10000002384,-0.109999999404,7.51000022888,197.5,12.6899995804
"2005-05-01 08:00:00",15.8299999237,0.0810000002384,-1.10000002384,-0.109999999404,7.40999984741,1347.0,12.6899995804
"2005-05-01 09:00:00",15.6499996185,0.0860000029206,-1.0,-0.10000000149,7.30999994278,1346.0,12.7299995422
"2005-05-01 10:00:00",15.6199998856,0.054999999702,-1.0,-0.10000000149,7.23999977112,1347.0,12.9899997711
"2005-05-01 11:00:00",15.970000267,0.00400000018999,-1.20000004768,-0.109999999404,7.26999998093,1348.0,13.6499996185
"2005-05-01 12:00:00",16.3700008392,0.00200000009499,-1.70000004768,-0.159999996424,7.26000022888,1350.0,14.2899999619
"2005-05-01 13:00:00",16.1100006104,0.00200000009499,-2.0,-0.189999997616,7.30999994278,1350.0,14.2600002289
"2005-05-01 14:00:00",16.4699993134,0.0010000000475,-2.29999995232,-0.219999998808,7.36000013351,1351.0,14.2399997711
"2005-05-01 15:00:00",16.4699993134,0.0010000000475,-2.29999995232,-0.230000004172,7.51000022888,1351.0,14.1999998093
"2005-05-01 16:00:00",14.8800001144,0.00200000009499,-2.0,-0.209999993443,7.25,1345.0,14.1999998093
"2005-05-01 17:00:00",15.3599996567,0.0010000000475,-2.0,-0.20000000298,7.11999988556,1346.0,14.1800003052
"2005-05-01 18:00:00",15.6800003052,0.0010000000475,-2.09999990463,-0.209999993443,7.03000020981,1348.0,13.1300001144
"2005-05-01 19:00:00",16.0900001526,0.0010000000475,-2.5,-0.25,7.15999984741,1349.0,13.0699996948
"2005-05-01 20:00:00",14.470000267,0.0010000000475,-2.29999995232,-0.239999994636,7.19999980927,1342.0,13.0200004578
"2005-05-01 21:00:00",14.0200004578,0.0010000000475,-1.10000002384,-0.109999999404,7.13999986649,1340.0,12.9799995422
"2005-05-01 22:00:00",13.7600002289,0.0010000000475,-2.29999995232,-0.230000004172,7.23999977112,1338.0,12.9600000381
"2005-05-01 23:00:00",12.5500001907,0.00200000009499,-0.899999976158,-0.10000000149,7.26999998093,1333.0,12.9399995804
"2005-05-02 00:00:00",12.2299995422,0.00200000009499,-1.0,-0.109999999404,7.28000020981,1332.0,12.9300003052
"2005-05-02 01:00:00",12.279999733,0.00200000009499,-1.0,-0.10000000149,7.30000019073,1332.0,12.9099998474
"2005-05-02 02:00:00",11.6300001144,0.00200000009499,-1.0,-0.10000000149,7.34000015259,1329.0,12.8900003433
"2005-05-02 03:00:00",11.220000267,0.00200000009499,-1.0,-0.109999999404,7.34000015259,1327.0,12.8800001144
"2005-05-02 04:00:00",10.4200000763,0.00200000009499,-1.0,-0.109999999404,7.36000013351,1324.0,12.8699998856
"2005-05-02 05:00:00",10.2700004578,0.00200000009499,-0.899999976158,-0.109999999404,7.36999988556,1323.0,12.8500003815
"2005-05-02 06:00:00",10.3699998856,0.00200000009499,-1.5,-0.159999996424,7.55000019073,1324.0,12.8400001526
"2005-05-02 07:00:00",10.1099996567,0.00200000009499,-0.800000011921,-0.0900000035763,7.51000022888,1322.0,12.8400001526
"2005-05-02 08:00:00",9.31000041962,0.00200000009499,-0.800000011921,-0.0900000035763,7.38999986649,1319.0,12.9099998474
"2005-05-02 09:00:00",11.1599998474,0.00200000009499,-0.800000011921,-0.0900000035763,7.34000015259,1327.0,13.0500001907
"2005-05-02 10:00:00",12.4399995804,0.00200000009499,-1.79999995232,-0.189999997616,7.25,1333.0,13.3999996185
"2005-05-02 11:00:00",13.1899995804,0.00200000009499,-1.89999997616,-0.20000000298,7.25,1336.0,14.2600002289
"2005-05-02 12:00:00",13.029999733,0.00200000009499,-4.09999990463,-0.430000007153,7.07999992371,1336.0,14.029999733
"2005-05-02 13:00:00",12.1899995804,0.0010000000475,-0.600000023842,-0.070000000298,6.94000005722,1333.0,14.279999733
"2005-05-02 14:00:00",14.6199998856,0.0010000000475,-1.5,-0.159999996424,6.94000005722,1343.0,14.2600002289
"2005-05-02 15:00:00",15.1800003052,0.0010000000475,-1.89999997616,-0.189999997616,6.94999980927,1346.0,14.220000267
"2005-05-02 16:00:00",15.3199996948,0.0010000000475,-1.39999997616,-0.140000000596,6.92000007629,1346.0,14.25
"2005-05-02 17:00:00",15.0500001907,0.0010000000475,-1.20000004768,-0.119999997318,6.94999980927,1345.0,14.1899995804
"2005-05-02 18:00:00",15.0699996948,0.0010000000475,-1.29999995232,-0.129999995232,6.98000001907,1345.0,13.1199998856
"2005-05-02 19:00:00",14.9099998474,0.0010000000475,-1.5,-0.159999996424,7.03999996185,1344.0,13.0600004196
"2005-05-02 20:00:00",12.7299995422,0.0010000000475,-1.39999997616,-0.15000000596,7.05000019073,1335.0,13.0
"2005-05-02 21:00:00",13.4600000381,0.00200000009499,-1.20000004768,-0.129999995232,7.13000011444,1338.0,12.970000267
"2005-05-02 22:00:00",13.5399999619,0.00200000009499,-1.39999997616,-0.15000000596,7.17000007629,1338.0,12.9499998093
"2005-05-02 23:00:00",12.4600000381,0.00200000009499,-1.5,-0.15000000596,7.19999980927,1333.0,12.9300003052
"2005-05-03 00:00:00",11.9200000763,0.00200000009499,-1.39999997616,-0.15000000596,7.26000022888,1331.0,12.9099998474
"2005-05-03 01:00:00",10.3900003433,0.00200000009499,-1.39999997616,-0.159999996424,7.26000022888,1324.0,12.8800001144
"2005-05-03 02:00:00",9.72999954224,0.00200000009499,-1.29999995232,-0.15000000596,7.32999992371,1321.0,12.8500003815
"2005-05-03 03:00:00",11.2899999619,0.00200000009499,-1.29999995232,-0.140000000596,7.36000013351,1328.0,12.8400001526
"2005-05-03 04:00:00",10.220000267,0.00200000009499,-1.29999995232,-0.140000000596,7.36999988556,1323.0,12.8299999237
"2005-05-03 05:00:00",10.2399997711,0.00200000009499,-1.20000004768,-0.140000000596,7.40000009537,1323.0,12.8199996948
"2005-05-03 06:00:00",10.1999998093,0.00200000009499,-1.20000004768,-0.140000000596,7.44000005722,1323.0,12.8100004196
"2005-05-03 07:00:00",9.52000045776,0.00200000009499,-1.20000004768,-0.140000000596,7.42999982834,1320.0,12.8000001907
"2005-05-03 08:00:00",9.60000038147,0.00200000009499,-1.20000004768,-0.140000000596,7.46999979019,1321.0,12.8299999237
"2005-05-03 09:00:00",9.64000034332,0.00200000009499,-1.20000004768,-0.140000000596,7.48000001907,1321.0,12.8500003815
"2005-05-03 10:00:00",10.3800001144,0.00200000009499,-1.39999997616,-0.159999996424,7.44000005722,1324.0,13.1800003052
"2005-05-03 11:00:00",11.6599998474,0.00200000009499,-1.29999995232,-0.140000000596,7.38999986649,1330.0,14.4099998474
"2005-05-03 12:00:00",14.0,0.0010000000475,-1.20000004768,-0.129999995232,7.26999998093,1340.0,14.279999733
"2005-05-03 13:00:00",15.1599998474,0.0,-1.89999997616,-0.189999997616,7.26000022888,1346.0,14.279999733
"2005-05-03 14:00:00",14.4200000763,0.0010000000475,-1.39999997616,-0.140000000596,7.23999977112,1343.0,13.529999733
"2005-05-03 15:00:00",16.4799995422,0.0,-0.899999976158,-0.0900000035763,7.17999982834,1351.0,13.4499998093
"2005-05-03 16:00:00",16.8099994659,0.0,-0.800000011921,-0.0799999982119,7.19000005722,1353.0,13.4399995804
"2005-05-03 17:00:00",15.5900001526,0.0,-0.899999976158,-0.0900000035763,7.26999998093,1347.0,14.2100000381
"2005-05-03 18:00:00",15.3900003433,0.0,-0.800000011921,-0.0799999982119,7.30999994278,1346.0,13.1099996567
"2005-05-03 19:00:00",14.3100004196,0.0,-1.10000002384,-0.109999999404,7.36000013351,1342.0,13.0500001907
"2005-05-03 20:00:00",13.3299999237,0.0,-3.70000004768,-0.389999985695,7.48000001907,1337.0,13.0
"2005-05-03 21:00:00",12.3999996185,0.0,-2.90000009537,-0.310000002384,7.57999992371,1333.0,12.970000267
"2005-05-03 22:00:00",12.3100004196,0.00300000002608,-4.59999990463,-0.490000009537,7.63999986649,1332.0,12.9499998093
"2005-05-03 23:00:00",11.0600004196,0.00300000002608,-4.30000019073,-0.469999998808,7.67999982834,1327.0,12.9200000763
"2005-05-04 00:00:00",11.5600004196,0.00400000018999,-3.70000004768,-0.40000000596,7.71999979019,1329.0,12.8999996185
"2005-05-04 01:00:00",10.1700000763,0.00400000018999,-2.5,-0.280000001192,7.73000001907,1323.0,12.8699998856
"2005-05-04 02:00:00",10.0900001526,0.00400000018999,-2.29999995232,-0.259999990463,7.75,1323.0,12.8500003815
"2005-05-04 03:00:00",8.77000045776,0.00400000018999,-1.70000004768,-0.20000000298,7.76999998093,1317.0,12.8199996948
"2005-05-04 04:00:00",9.31000041962,0.00400000018999,-1.5,-0.170000001788,7.80000019073,1319.0,12.8000001907
"2005-05-04 05:00:00",9.86999988556,0.00499999988824,-1.5,-0.170000001788,7.80999994278,1322.0,12.779999733
"2005-05-04 06:00:00",10.1099996567,0.00499999988824,-1.39999997616,-0.159999996424,7.80000019073,1323.0,12.7700004578
"2005-05-04 07:00:00",9.75,0.00499999988824,-1.60000002384,-0.180000007153,7.82999992371,1321.0,12.7600002289
"2005-05-04 08:00:00",9.76000022888,0.00499999988824,-1.29999995232,-0.140000000596,7.84000015259,1321.0,12.7899999619
"2005-05-04 09:00:00",10.1899995804,0.00499999988824,-1.39999997616,-0.15000000596,7.84000015259,1323.0,12.8400001526
"2005-05-04 10:00:00",11.6199998856,0.00400000018999,-1.39999997616,-0.159999996424,7.78000020981,1330.0,13.220000267
"2005-05-04 11:00:00",13.2399997711,0.00200000009499,-0.800000011921,-0.0799999982119,7.67000007629,1337.0,14.1499996185
"2005-05-04 12:00:00",14.7399997711,0.0010000000475,1.89999997616,0.189999997616,7.61999988556,1344.0,14.3000001907
"2005-05-04 13:00:00",15.1700000763,0.0010000000475,-0.20000000298,-0.019999999553,7.48999977112,1345.0,14.279999733
"2005-05-04 14:00:00",14.75,0.0010000000475,-1.0,-0.10000000149,8.27000045776,1344.0,14.279999733
"2005-05-04 15:00:00",15.1999998093,0.00200000009499,-2.0,-0.20000000298,7.98000001907,1346.0,14.2600002289
"2005-05-04 16:00:00",15.5500001907,0.00899999961257,-2.0,-0.20000000298,7.98000001907,1347.0,14.1999998093
"2005-05-04 17:00:00",14.8900003433,0.00300000002608,-1.5,-0.159999996424,7.98999977112,1344.0,13.220000267
"2005-05-04 18:00:00",15.029999733,0.00300000002608,-1.70000004768,-0.170000001788,7.96000003815,1345.0,13.3800001144
"2005-05-04 19:00:00",14.7600002289,0.00300000002608,-1.89999997616,-0.20000000298,7.90000009537,1343.0,13.0900001526
"2005-05-04 20:00:00",14.4200000763,0.00300000002608,-3.29999995232,-0.340000003576,7.86000013351,1342.0,13.0200004578
"2005-05-04 21:00:00",14.0100002289,0.00400000018999,-4.69999980927,-0.479999989271,7.86000013351,1340.0,12.9799995422
"2005-05-04 22:00:00",12.7100000381,0.00400000018999,-4.19999980927,-0.449999988079,7.84999990463,1334.0,12.9600000381
"2005-05-04 23:00:00",12.3400001526,0.00300000002608,-3.40000009537,-0.370000004768,7.84000015259,1333.0,12.9399995804
"2005-05-05 00:00:00",12.2299995422,0.00300000002608,-2.70000004768,-0.289999991655,7.82000017166,1332.0,12.9300003052
"2005-05-05 01:00:00",12.0600004196,0.00300000002608,-2.20000004768,-0.239999994636,7.82999992371,1331.0,12.8999996185
"2005-05-05 02:00:00",11.6300001144,0.00300000002608,-1.89999997616,-0.209999993443,7.80999994278,1330.0,12.8800001144
"2005-05-05 03:00:00",11.0100002289,0.00300000002608,-1.70000004768,-0.189999997616,7.80000019073,1327.0,12.8500003815
"2005-05-05 04:00:00",10.8299999237,0.00300000002608,-1.79999995232,-0.20000000298,7.80000019073,1326.0,12.8000001907
"2005-05-05 05:00:00",11.1300001144,0.00300000002608,-1.60000002384,-0.170000001788,7.82000017166,1327.0,12.8000001907
"2005-05-05 06:00:00",9.97999954224,0.00300000002608,-1.70000004768,-0.189999997616,7.82999992371,1322.0,12.779999733
"2005-05-05 07:00:00",10.3000001907,0.00400000018999,-1.60000002384,-0.180000007153,7.86000013351,1324.0,12.779999733
"2005-05-05 08:00:00",10.9499998093,0.00400000018999,-1.5,-0.170000001788,7.84999990463,1326.0,12.8500003815
"2005-05-05 09:00:00",11.4300003052,0.00300000002608,-1.60000002384,-0.170000001788,7.82000017166,1329.0,13.0200004578
"2005-05-05 10:00:00",12.0,0.00300000002608,-1.29999995232,-0.140000000596,7.73999977112,1331.0,13.2899999619
"2005-05-05 11:00:00",12.5200004578,0.00300000002608,-1.20000004768,-0.129999995232,7.65000009537,1334.0,13.3000001907
"2005-05-05 12:00:00",13.4200000763,0.00300000002608,-1.10000002384,-0.109999999404,7.61000013351,1338.0,13.4899997711
"2005-05-05 13:00:00",13.4399995804,0.00300000002608,-0.899999976158,-0.10000000149,7.55000019073,1338.0,13.3999996185
"2005-05-05 14:00:00",13.6300001144,0.00300000002608,-0.899999976158,-0.0900000035763,7.48999977112,1339.0,14.3299999237
"2005-05-05 15:00:00",13.9600000381,0.00300000002608,-1.0,-0.10000000149,7.46999979019,1340.0,13.4799995422
"2005-05-05 16:00:00",13.9600000381,0.00300000002608,-1.20000004768,-0.119999997318,7.46999979019,1340.0,13.1700000763
"2005-05-05 17:00:00",13.720000267,0.00200000009499,-1.39999997616,-0.15000000596,7.48000001907,1339.0,13.0900001526
"2005-05-05 18:00:00",13.9499998093,0.00300000002608,-4.69999980927,-0.490000009537,7.55000019073,1340.0,13.0399999619
"2005-05-05 19:00:00",12.8800001144,0.00300000002608,-1.79999995232,-0.189999997616,7.53999996185,1335.0,12.9799995422
"2005-05-05 20:00:00",12.5200004578,0.00300000002608,-1.79999995232,-0.20000000298,7.57000017166,1334.0,12.9600000381
"2005-05-05 21:00:00",12.8999996185,0.00300000002608,-3.59999990463,-0.379999995232,7.61000013351,1335.0,12.9300003052
"2005-05-05 22:00:00",12.9300003052,0.00499999988824,-2.70000004768,-0.280000001192,7.65000009537,1335.0,12.9099998474
"2005-05-05 23:00:00",13.970000267,0.316000014544,-1.70000004768,-0.170000001788,8.15999984741,1339.0,12.8699998856
"2005-05-06 00:00:00",14.4600000381,0.232999995351,-0.20000000298,-0.019999999553,8.02999973297,1341.0,12.8400001526
"2005-05-06 01:00:00",14.3999996185,0.135000005364,0.20000000298,0.019999999553,7.98000001907,1341.0,12.8100004196
"2005-05-06 02:00:00",14.0200004578,0.0869999974966,-0.5,-0.0500000007451,7.90000009537,1339.0,12.779999733
"2005-05-06 03:00:00",13.5900001526,0.0750000029802,-1.29999995232,-0.129999995232,7.80999994278,1338.0,12.7600002289
"2005-05-06 04:00:00",13.3500003815,0.0879999995232,-1.60000002384,-0.170000001788,7.69999980927,1336.0,12.75
"2005-05-06 05:00:00",13.220000267,0.101000003517,-1.39999997616,-0.15000000596,7.63999986649,1336.0,12.7399997711
"2005-05-06 06:00:00",13.1199998856,0.119000002742,-1.39999997616,-0.140000000596,7.57999992371,1335.0,12.7399997711
"2005-05-06 07:00:00",13.0200004578,0.0719999969006,-1.39999997616,-0.140000000596,7.55000019073,1335.0,12.7299995422
"2005-05-06 08:00:00",12.8999996185,0.141000002623,-1.39999997616,-0.15000000596,7.55999994278,1334.0,12.7399997711
"2005-05-06 09:00:00",13.1999998093,0.118000000715,-1.39999997616,-0.15000000596,7.59999990463,1336.0,12.7399997711
"2005-05-06 10:00:00",13.2299995422,0.097999997437,-1.39999997616,-0.140000000596,7.61000013351,1336.0,12.8299999237
"2005-05-06 11:00:00",13.1400003433,0.104000002146,-1.20000004768,-0.119999997318,7.55999994278,1336.0,12.9300003052
"2005-05-06 12:00:00",13.1000003815,0.0810000002384,-1.20000004768,-0.119999997318,7.51999998093,1335.0,13.0500001907
"2005-05-06 13:00:00",13.0699996948,0.0659999996424,-1.20000004768,-0.129999995232,7.48999977112,1335.0,13.3299999237
"2005-05-06 14:00:00",13.220000267,0.0140000004321,-1.29999995232,-0.140000000596,7.51000022888,1336.0,13.4300003052
"2005-05-06 15:00:00",13.1400003433,0.00200000009499,-1.29999995232,-0.140000000596,7.51000022888,1336.0,13.4099998474
"2005-05-06 16:00:00",12.7899999619,0.00200000009499,-1.39999997616,-0.15000000596,7.5,1335.0,13.220000267
"2005-05-06 17:00:00",12.9499998093,0.00200000009499,-1.5,-0.159999996424,7.53999996185,1335.0,13.8900003433
"2005-05-06 18:00:00",13.0500001907,0.00200000009499,-1.60000002384,-0.170000001788,7.51000022888,1336.0,13.25
"2005-05-06 19:00:00",12.7399997711,0.00200000009499,-1.60000002384,-0.170000001788,7.51999998093,292.0,13.1099996567
"2005-05-06 20:00:00",12.3900003433,0.00200000009499,-1.5,-0.159999996424,7.65000009537,36.9000015259,13.0
"2005-05-06 21:00:00",11.1300001144,0.00200000009499,-1.0,-0.109999999404,7.63999986649,29.8999996185,12.9399995804
"2005-05-06 22:00:00",9.77999973297,0.00200000009499,-1.39999997616,-0.159999996424,7.73000001907,25.7000007629,12.9099998474
"2005-05-06 23:00:00",10.5600004196,0.00200000009499,-1.29999995232,-0.15000000596,7.73999977112,23.6000003815,12.8699998856
"2005-05-07 00:00:00",10.4799995422,0.00200000009499,-0.800000011921,-0.0900000035763,7.71000003815,19.8999996185,12.8199996948
"2005-05-07 01:00:00",9.63000011444,0.00200000009499,-0.800000011921,-0.0900000035763,7.67999982834,17.0,12.779999733
"2005-05-07 02:00:00",9.27000045776,0.00200000009499,-1.29999995232,-0.15000000596,7.67999982834,19.1000003815,12.7399997711
"2005-05-07 03:00:00",9.44999980927,0.00200000009499,-1.20000004768,-0.140000000596,7.67000007629,15.3999996185,12.7100000381
"2005-05-07 04:00:00",9.13000011444,0.00200000009499,-0.699999988079,-0.0799999982119,7.61000013351,14.8999996185,12.6999998093
"2005-05-07 05:00:00",8.14999961853,0.00200000009499,-0.600000023842,-0.0799999982119,7.59000015259,13.1999998093,12.6899995804
"2005-05-07 06:00:00",8.92000007629,0.00200000009499,-0.699999988079,-0.0799999982119,7.59999990463,18.8999996185,12.6899995804
"2005-05-07 07:00:00",8.59000015259,0.00200000009499,-0.600000023842,-0.0799999982119,7.57000017166,14.6000003815,12.6899995804
"2005-05-07 08:00:00",7.51000022888,0.00200000009499,-0.600000023842,-0.0799999982119,7.53999996185,153.699996948,12.720000267
"2005-05-07 09:00:00",9.27000045776,0.00200000009499,-1.20000004768,-0.140000000596,7.5,13.8999996185,12.7899999619
"2005-05-07 10:00:00",10.470000267,0.00200000009499,-0.899999976158,-0.10000000149,7.28999996185,146.399993896,13.1999998093
"2005-05-07 11:00:00",12.0600004196,0.00200000009499,-1.20000004768,-0.119999997318,7.03999996185,15.6999998093,14.5600004196
"2005-05-07 12:00:00",13.3599996567,0.0010000000475,-1.29999995232,-0.129999995232,6.78000020981,11.8000001907,14.25
"2005-05-07 13:00:00",14.7600002289,0.0010000000475,-1.29999995232,-0.129999995232,6.57999992371,12.0,14.1999998093
"2005-05-07 14:00:00",14.2399997711,0.0010000000475,-1.20000004768,-0.129999995232,6.36999988556,14.1000003815,14.1899995804
"2005-05-07 15:00:00",16.4899997711,0.0,-1.10000002384,-0.10000000149,6.42000007629,9.30000019073,13.4200000763
"2005-05-07 16:00:00",15.8199996948,0.0,-0.10000000149,-0.00999999977648,6.23000001907,9.10000038147,14.0799999237
"2005-05-07 17:00:00",15.3100004196,0.0,-2.09999990463,-0.209999993443,6.51999998093,9.5,14.0900001526
"2005-05-07 18:00:00",16.2600002289,0.0,-2.29999995232,-0.230000004172,6.67999982834,11.6999998093,13.1400003433
"2005-05-07 19:00:00",15.970000267,0.0,-1.70000004768,-0.159999996424,6.71999979019,11.6999998093,13.0799999237
"2005-05-07 20:00:00",15.6000003815,0.0,-1.70000004768,-0.170000001788,6.80000019073,13.8999996185,13.0200004578
"2005-05-07 21:00:00",15.4200000763,0.0,-1.70000004768,-0.170000001788,6.88000011444,13.3999996185,13.0
"2005-05-07 22:00:00",15.0699996948,0.0010000000475,-1.5,-0.15000000596,6.92999982834,11.5,12.9799995422
"2005-05-07 23:00:00",15.1700000763,0.00200000009499,-1.60000002384,-0.159999996424,7.0,11.0,12.9600000381
"2005-05-08 00:00:00",14.4099998474,0.00200000009499,-5.30000019073,-0.550000011921,7.11999988556,11.3000001907,12.9399995804
"2005-05-08 01:00:00",13.3699998856,0.00200000009499,-1.10000002384,-0.119999997318,7.17000007629,11.1000003815,12.9200000763
"2005-05-08 02:00:00",13.1400003433,0.00200000009499,-1.0,-0.109999999404,7.21999979019,10.5,12.8999996185
"2005-05-08 03:00:00",13.3900003433,0.00200000009499,-1.10000002384,-0.109999999404,7.26999998093,11.6999998093,12.8800001144
"2005-05-08 04:00:00",13.0100002289,0.00200000009499,-1.20000004768,-0.129999995232,7.28000020981,12.0,12.8699998856
"2005-05-08 05:00:00",12.3900003433,0.00300000002608,-1.20000004768,-0.129999995232,7.30999994278,6.19999980927,12.8400001526
"2005-05-08 06:00:00",11.9899997711,0.00300000002608,-1.10000002384,-0.119999997318,7.34999990463,11.3000001907,12.8299999237
"2005-05-08 07:00:00",12.1099996567,0.00300000002608,-1.10000002384,-0.119999997318,7.44000005722,11.6000003815,12.8100004196
"2005-05-08 08:00:00",11.8400001526,0.00300000002608,-1.10000002384,-0.119999997318,7.46000003815,10.3000001907,12.8199996948
"2005-05-08 09:00:00",13.3000001907,0.00300000002608,-1.10000002384,-0.109999999404,7.46000003815,10.0,12.8500003815
"2005-05-08 10:00:00",13.7100000381,0.00300000002608,-1.29999995232,-0.140000000596,7.34000015259,10.1999998093,13.2299995422
"2005-05-08 11:00:00",15.3800001144,0.00200000009499,-6.0,-0.600000023842,7.13999986649,9.10000038147,14.2600002289
"2005-05-08 12:00:00",16.4799995422,0.00400000018999,2.0,0.20000000298,6.94000005722,10.3999996185,14.2100000381
"2005-05-08 13:00:00",15.8999996185,0.00200000009499,-0.5,-0.0500000007451,6.59999990463,8.69999980927,14.1599998474
"2005-05-08 14:00:00",17.8400001526,0.0,-0.20000000298,-0.019999999553,6.42999982834,8.60000038147,13.4099998474
"2005-05-08 15:00:00",19.5300006866,0.0,0.0,0.0,6.34999990463,7.59999990463,13.3299999237
"2005-05-08 16:00:00",20.4899997711,0.0,0.300000011921,0.0299999993294,6.26999998093,9.19999980927,13.3000001907
"2005-05-08 17:00:00",18.5799999237,0.0,0.300000011921,0.0299999993294,6.42000007629,8.39999961853,13.2700004578
"2005-05-08 18:00:00",18.3199996948,0.0,0.300000011921,0.019999999553,6.55999994278,8.89999961853,13.0799999237
"2005-05-08 19:00:00",17.6000003815,0.0,0.10000000149,0.00999999977648,6.80000019073,9.5,13.0399999619
"2005-05-08 20:00:00",16.6700000763,0.0,-0.10000000149,-0.00999999977648,6.86999988556,9.69999980927,13.0
"2005-05-08 21:00:00",15.9899997711,0.0,-0.20000000298,-0.019999999553,6.92999982834,80.1999969482,12.9799995422
"2005-05-08 22:00:00",14.0699996948,0.0,-0.300000011921,-0.0299999993294,6.94000005722,9.60000038147,12.9499998093
"2005-05-08 23:00:00",14.779999733,0.0,-0.5,-0.0500000007451,7.09999990463,9.80000019073,12.9300003052
"2005-05-09 00:00:00",13.7299995422,0.0,-0.40000000596,-0.0399999991059,7.17999982834,10.0,12.8999996185
"2005-05-09 01:00:00",13.8299999237,0.0,-0.20000000298,-0.019999999553,7.23000001907,10.3000001907,12.8699998856
"2005-05-09 02:00:00",13.4200000763,0.0010000000475,-0.20000000298,-0.019999999553,7.30999994278,10.8999996185,12.8500003815
"2005-05-09 03:00:00",13.0399999619,0.0010000000475,-0.20000000298,-0.019999999553,7.36999988556,9.80000019073,12.8199996948
"2005-05-09 04:00:00",10.8400001526,0.0010000000475,-0.20000000298,-0.019999999553,7.38000011444,10.1999998093,12.8000001907
"2005-05-09 05:00:00",11.4200000763,0.0010000000475,-0.20000000298,-0.019999999553,7.40000009537,5.40000009537,12.779999733
"2005-05-09 06:00:00",10.8500003815,0.0010000000475,-0.20000000298,-0.019999999553,7.44999980927,13.0,12.7600002289
"2005-05-09 07:00:00",10.5900001526,0.0010000000475,-0.20000000298,-0.019999999553,7.48999977112,12.0,12.75
"2005-05-09 08:00:00",10.8400001526,0.0010000000475,-0.20000000298,-0.0299999993294,7.5,10.8999996185,12.7600002289
"2005-05-09 09:00:00",12.4099998474,0.0010000000475,-0.40000000596,-0.0399999991059,7.5,9.39999961853,12.7899999619
"2005-05-09 10:00:00",13.9399995804,0.0010000000475,0.0,0.0,7.46000003815,9.80000019073,13.2299995422
"2005-05-09 11:00:00",14.9300003052,0.0,0.0,0.0,7.21000003815,9.89999961853,14.1999998093